Back to catalog

CS 3B

AliveCommunicationsGEO
NORAD 19508·PAYLOAD·🇯🇵 Japan

Launched Sep 16, 1988 from Tanegashima Space Center

Loading…

TLE

FreshSource: Space-Track

Epoch: Sep 14, 2026, 03:57 UTC

1 19508U 88086A   26257.16503323 -.00000129  00000-0  00000-0 0  9991
2 19508  14.8806 353.0179 0004678 317.3464  22.7716  0.99222373138131

Track CS 3B in real time with AllMySat

Download on the App Store